Weather History for Lander, WY

Change the Weather History Date:

Thursday, February 28, 2013

  Actual Average Record
Temperature  
Mean Temperature 24 °F 30 °F  
Max Temperature 39 °F 41 °F 61 °F (1974)
Min Temperature 9 °F 18 °F -19 °F (1893)
Degree Days  
Heating Degree Days 41 35  
Month to date heating degree days 1156 1114  
Since 1 July heating degree days 5369 5704  
Cooling Degree Days 0 0  
Month to date cooling degree days 0 0  
Year to date cooling degree days 0 0  
Moisture  
Dew Point 9 °F    
Average Humidity 51    
Maximum Humidity 67    
Minimum Humidity 34    
Precipitation  
Precipitation 0.00 in 0.03 in 0.82 in (2004)
Month to date precipitation 1.28 0.58  
Year to date precipitation 1.98 0.99  
Snow  
Snow 0.00 in 0.40 in - ()
Month to date snowfall 23.8 10.3  
Since 1 July snowfall 52.2 53.6  
Snow Depth 4.00 in    
Sea Level Pressure  
Sea Level Pressure 30.32 in    
Wind  
Wind Speed 5 mph (SE)    
Max Wind Speed 15 mph    
Max Gust Speed 18 mph    
Visibility 10 miles    
Events      
T = Trace of Precipitation, MM = Missing Value Source: NWS Daily Summary

Daily Weather History Graph

Daily Weather History Graph

Search for Another Location

Airport:

Trip Planner

Search our weather history database for the weather conditions in past years. The results will help you decide how hot, cold, wet, or windy it might be!

Date:

Astronomy

Feb. 28, 2013 Rise Set
Actual Time 6:51 AM MST 6:03 PM MST
Civil Twilight 6:23 AM MST 6:31 PM MST
Nautical Twilight 5:50 AM MST 7:04 PM MST
Astronomical Twilight 5:17 AM MST 7:37 PM MST
Moon 9:40 PM MST (2/28) 7:57 AM MST (2/28)
Length of Visible Light 12h 08m
Length of Day
11h 11m
Waning Gibbous, 90% of the Moon is Illuminated
Feb 28
Waning Gibbous
Mar 4
Last Quarter
Mar 11
New
Mar 19
First Quarter
Mar 27
Full

Hourly Weather History & Observations

Time (MST) Temp. Windchill Dew Point Humidity Pressure Visibility Wind Dir Wind Speed Gust Speed Precip Events Conditions
12:53 AM 18.0 °F - 5.0 °F 57% 30.32 in 10.0 mi Calm Calm - N/A   Clear
1:53 AM 19.0 °F 13.9 °F 5.0 °F 54% 30.31 in 10.0 mi NNE 3.5 mph - N/A   Clear
2:53 AM 18.0 °F 8.7 °F 1.0 °F 48% 30.30 in 10.0 mi SW 6.9 mph - N/A   Clear
3:53 AM 19.9 °F 12.1 °F 1.0 °F 44% 30.29 in 10.0 mi SW 5.8 mph - N/A   Clear
4:53 AM 16.0 °F 7.4 °F 1.9 °F 54% 30.31 in 10.0 mi NNW 5.8 mph - N/A   Clear
5:53 AM 14.0 °F 6.5 °F 1.0 °F 56% 30.33 in 10.0 mi East 4.6 mph - N/A   Clear
6:53 AM 14.0 °F 5.1 °F 1.9 °F 59% 30.36 in 10.0 mi East 5.8 mph - N/A   Clear
7:53 AM 17.1 °F 7.6 °F 3.0 °F 54% 30.38 in 10.0 mi NW 6.9 mph - N/A   Clear
8:53 AM 16.0 °F - 7.0 °F 68% 30.37 in 10.0 mi Calm Calm - N/A   Clear
9:53 AM 24.1 °F - 3.9 °F 42% 30.34 in 10.0 mi Calm Calm - N/A   Clear
10:53 AM 28.0 °F 21.7 °F 12.0 °F 51% 30.31 in 10.0 mi SE 5.8 mph - N/A   Clear
11:53 AM 36.0 °F 29.0 °F 12.0 °F 37% 30.29 in 10.0 mi East 9.2 mph - N/A   Clear
12:53 PM 36.0 °F 32.1 °F 12.0 °F 37% 30.27 in 10.0 mi ESE 4.6 mph - N/A   Clear
1:53 PM 37.0 °F 34.5 °F 12.9 °F 37% 30.25 in 10.0 mi South 3.5 mph - N/A   Scattered Clouds
2:53 PM 37.9 °F 34.4 °F 12.9 °F 36% 30.25 in 10.0 mi East 4.6 mph - N/A   Mostly Cloudy
3:53 PM 37.0 °F 34.5 °F 15.1 °F 41% 30.26 in 10.0 mi SSE 3.5 mph - N/A   Overcast
4:53 PM 39.0 °F - 14.0 °F 36% 30.27 in 10.0 mi Calm Calm - N/A   Mostly Cloudy
5:53 PM 35.1 °F - 15.1 °F 44% 30.32 in 10.0 mi Calm Calm - N/A   Clear
6:53 PM 35.1 °F - 15.1 °F 44% 30.34 in 10.0 mi Calm Calm - N/A   Clear
7:53 PM 34.0 °F 28.8 °F 15.1 °F 46% 30.34 in 10.0 mi West 5.8 mph - N/A   Clear
8:53 PM 34.0 °F 24.6 °F 15.1 °F 46% 30.36 in 10.0 mi WNW 13.8 mph - N/A   Clear
9:53 PM 30.9 °F 24.3 °F 12.9 °F 47% 30.34 in 10.0 mi West 6.9 mph - N/A   Clear
10:53 PM 32.0 °F 26.4 °F 12.0 °F 44% 30.34 in 10.0 mi WNW 5.8 mph - N/A   Clear
11:53 PM 25.0 °F 18.1 °F 12.0 °F 58% 30.33 in 10.0 mi East 5.8 mph - N/A   Mostly Cloudy